• In Belarus
  • List of Countries
  • For 7 days
  • Water Temperature
  • Satellite Maps
  • Weather Map
  • Weather Widgets
  • user-avatar
    Login

    Hourly Weather Chatsu

    Today, 19 January, Saturday

    Time Temperature Precipitation Wind Pressure Humidity
    00:00 +15°C° 0 mm 1 mps 735 mmHg 55%
    01:00 +14°C° 0 mm 1 mps 735 mmHg 56%
    02:00 +13°C° 0 mm 0 mps 735 mmHg 57%
    03:00 +12°C° 0 mm 0 mps 735 mmHg 57%
    04:00 +12°C° 0 mm 0 mps 735 mmHg 58%
    05:00 +13°C° 0 mm 1 mps 735 mmHg 58%
    06:00 +14°C° 0 mm 1 mps 735 mmHg 56%
    07:00 +15°C° 0 mm 1 mps 735 mmHg 54%
    08:00 +18°C° 0 mm 1 mps 736 mmHg 52%
    09:00 +20°C° 0 mm 1 mps 736 mmHg 46%
    10:00 +22°C° 0 mm 1 mps 736 mmHg 40%
    11:00 +24°C° 0 mm 1 mps 736 mmHg 33%
    12:00 +25°C° 0 mm 2 mps 736 mmHg 31%
    13:00 +27°C° 0 mm 2 mps 736 mmHg 29%
    14:00 +28°C° 0 mm 2 mps 735 mmHg 27%
    15:00 +26°C° 0 mm 2 mps 735 mmHg 31%
    16:00 +25°C° 0 mm 1 mps 735 mmHg 36%
    17:00 +23°C° 0 mm 1 mps 735 mmHg 41%
    18:00 +22°C° 0 mm 1 mps 735 mmHg 40%
    19:00 +21°C° 0 mm 2 mps 735 mmHg 40%
    20:00 +20°C° 0 mm 2 mps 735 mmHg 40%
    21:00 +19°C° 0 mm 2 mps 736 mmHg 41%
    22:00 +19°C° 0 mm 2 mps 736 mmHg 42%
    23:00 +18°C° 0 mm 2 mps 736 mmHg 44%

    Tomorrow, 20 January, Sunday

    Time Temperature Precipitation Wind Pressure Humidity
    00:00 +18°C° 0 mm 1 mps 735 mmHg 47%
    01:00 +16°C° 0 mm 1 mps 735 mmHg 49%
    02:00 +14°C° 0 mm 0 mps 735 mmHg 52%
    03:00 +14°C° 0 mm 0 mps 735 mmHg 54%
    04:00 +15°C° 0 mm 1 mps 735 mmHg 55%
    05:00 +14°C° 0 mm 1 mps 735 mmHg 57%
    06:00 +16°C° 0 mm 1 mps 735 mmHg 54%
    07:00 +18°C° 0 mm 1 mps 736 mmHg 51%
    08:00 +19°C° 0 mm 1 mps 737 mmHg 49%
    09:00 +20°C° 0 mm 2 mps 737 mmHg 43%
    10:00 +24°C° 0 mm 2 mps 737 mmHg 36%
    11:00 +26°C° 0 mm 2 mps 737 mmHg 30%
    12:00 +27°C° 0 mm 3 mps 736 mmHg 28%
    13:00 +28°C° 0 mm 3 mps 735 mmHg 26%
    14:00 +29°C° 0 mm 3 mps 734 mmHg 23%
    15:00 +28°C° 0 mm 3 mps 734 mmHg 27%
    16:00 +26°C° 0 mm 2 mps 734 mmHg 31%
    17:00 +25°C° 0 mm 2 mps 733 mmHg 34%
    18:00 +24°C° 0 mm 2 mps 734 mmHg 34%
    19:00 +22°C° 0 mm 3 mps 734 mmHg 34%
    20:00 +21°C° 0 mm 3 mps 734 mmHg 34%
    21:00 +21°C° 0 mm 3 mps 734 mmHg 34%
    22:00 +20°C° 0 mm 3 mps 734 mmHg 35%
    23:00 +20°C° 0 mm 2 mps 734 mmHg 35%

    Day after tomorrow, 21 January, Monday

    Time Temperature Precipitation Wind Pressure Humidity
    00:00 +19°C° 0 mm 2 mps 734 mmHg 37%
    01:00 +18°C° 0 mm 2 mps 733 mmHg 38%
    02:00 +18°C° 0 mm 2 mps 733 mmHg 39%
    03:00 +17°C° 0 mm 2 mps 733 mmHg 41%
    04:00 +16°C° 0 mm 2 mps 733 mmHg 43%
    05:00 +16°C° 0 mm 2 mps 732 mmHg 44%
    06:00 +16°C° 0 mm 2 mps 733 mmHg 44%
    07:00 +17°C° 0 mm 2 mps 733 mmHg 43%
    08:00 +18°C° 0 mm 2 mps 734 mmHg 43%
    09:00 +20°C° 0 mm 3 mps 734 mmHg 39%
    10:00 +22°C° 0 mm 3 mps 734 mmHg 35%
    11:00 +25°C° 0 mm 3 mps 734 mmHg 31%
    12:00 +26°C° 0 mm 3 mps 733 mmHg 29%
    13:00 +28°C° 0 mm 4 mps 732 mmHg 28%
    14:00 +29°C° 0 mm 5 mps 731 mmHg 26%
    15:00 +28°C° 0 mm 4 mps 731 mmHg 29%
    16:00 +27°C° 0 mm 3 mps 731 mmHg 33%
    17:00 +26°C° 0 mm 2 mps 730 mmHg 36%
    18:00 +25°C° 0 mm 2 mps 731 mmHg 37%
    19:00 +22°C° 0 mm 3 mps 731 mmHg 38%
    20:00 +21°C° 0 mm 4 mps 732 mmHg 39%
    21:00 +19°C° 0 mm 3 mps 732 mmHg 44%
    22:00 +18°C° 0 mm 3 mps 732 mmHg 49%
    23:00 +17°C° 0 mm 2 mps 732 mmHg 54%

    22 January, Tuesday

    Time Temperature Precipitation Wind Pressure Humidity
    00:00 +16°C° 0 mm 2 mps 732 mmHg 56%
    01:00 +16°C° 0 mm 2 mps 731 mmHg 57%
    02:00 +15°C° 0 mm 2 mps 731 mmHg 58%
    03:00 +15°C° 0 mm 2 mps 731 mmHg 60%
    04:00 +14°C° 0 mm 2 mps 731 mmHg 61%
    05:00 +14°C° 0 mm 1 mps 731 mmHg 63%
    06:00 +15°C° 0 mm 1 mps 732 mmHg 62%
    07:00 +16°C° 0 mm 1 mps 733 mmHg 61%
    08:00 +16°C° 0 mm 1 mps 734 mmHg 60%
    09:00 +19°C° 0 mm 1 mps 734 mmHg 55%
    10:00 +20°C° 0 mm 1 mps 734 mmHg 51%
    11:00 +22°C° 0 mm 1 mps 734 mmHg 46%
    12:00 +23°C° 0 mm 2 mps 734 mmHg 42%
    13:00 +23°C° 0 mm 2 mps 733 mmHg 39%
    14:00 +24°C° 0 mm 3 mps 733 mmHg 36%
    15:00 +23°C° 0 mm 2 mps 733 mmHg 39%
    16:00 +23°C° 0 mm 2 mps 732 mmHg 42%
    17:00 +22°C° 0 mm 1 mps 732 mmHg 45%
    18:00 +21°C° 0 mm 1 mps 733 mmHg 45%
    19:00 +19°C° 0 mm 2 mps 734 mmHg 46%
    20:00 +17°C° 0 mm 2 mps 734 mmHg 46%
    21:00 +17°C° 0 mm 2 mps 734 mmHg 46%
    22:00 +17°C° 0 mm 2 mps 735 mmHg 47%
    23:00 +17°C° 0 mm 3 mps 735 mmHg 47%

    23 January, Wednesday

    Time Temperature Precipitation Wind Pressure Humidity
    00:00 +16°C° 0 mm 3 mps 735 mmHg 48%
    01:00 +14°C° 0 mm 3 mps 735 mmHg 49%
    02:00 +15°C° 0 mm 2 mps 735 mmHg 50%
    03:00 +13°C° 0 mm 3 mps 735 mmHg 55%
    04:00 +13°C° 0 mm 3 mps 735 mmHg 60%
    05:00 +12°C° 0 mm 3 mps 735 mmHg 64%
    06:00 +13°C° 0 mm 3 mps 735 mmHg 67%
    07:00 +14°C° 0 mm 2 mps 736 mmHg 70%
    08:00 +15°C° 0 mm 2 mps 737 mmHg 73%
    09:00 +17°C° 0 mm 3 mps 737 mmHg 65%
    10:00 +19°C° 0 mm 3 mps 737 mmHg 57%
    11:00 +22°C° 0 mm 3 mps 737 mmHg 49%
    12:00 +24°C° 0 mm 3 mps 736 mmHg 46%
    13:00 +24°C° 0 mm 2 mps 735 mmHg 42%
    14:00 +25°C° 0 mm 2 mps 734 mmHg 38%
    15:00 +24°C° 0 mm 2 mps 734 mmHg 41%
    16:00 +24°C° 0 mm 1 mps 734 mmHg 44%
    17:00 +23°C° 0 mm 1 mps 734 mmHg 47%
    18:00 +23°C° 0 mm 1 mps 735 mmHg 46%
    19:00 +21°C° 0 mm 2 mps 735 mmHg 45%
    20:00 +21°C° 0 mm 2 mps 736 mmHg 43%
    21:00 +19°C° 0 mm 3 mps 736 mmHg 53%
    22:00 +18°C° 0 mm 3 mps 736 mmHg 62%
    23:00 +17°C° 0 mm 3 mps 736 mmHg 71%

    24 January, Thursday

    Time Temperature Precipitation Wind Pressure Humidity
    00:00 +15°C° 0 mm 4 mps 736 mmHg 72%
    01:00 +15°C° 0 mm 4 mps 736 mmHg 73%
    02:00 +14°C° 0 mm 4 mps 736 mmHg 74%
    03:00 +14°C° 0 mm 4 mps 736 mmHg 74%
    04:00 +14°C° 0 mm 4 mps 736 mmHg 74%
    05:00 +13°C° 0 mm 4 mps 736 mmHg 74%
    06:00 +14°C° 0 mm 4 mps 736 mmHg 73%
    07:00 +14°C° 0 mm 4 mps 737 mmHg 72%
    08:00 +14°C° 0 mm 5 mps 737 mmHg 71%
    09:00 +16°C° 0 mm 5 mps 738 mmHg 65%
    10:00 +20°C° 0 mm 5 mps 738 mmHg 58%
    11:00 +22°C° 0 mm 5 mps 738 mmHg 51%
    12:00 +23°C° 0 mm 4 mps 737 mmHg 48%
    13:00 +23°C° 0 mm 4 mps 736 mmHg 45%
    14:00 +25°C° 0 mm 4 mps 735 mmHg 42%
    15:00 +24°C° 0 mm 3 mps 735 mmHg 44%
    16:00 +24°C° 0 mm 3 mps 735 mmHg 47%
    17:00 +22°C° 0 mm 3 mps 735 mmHg 50%
    18:00 +21°C° 0.2 mm 3 mps 735 mmHg 55%
    19:00 +19°C° 0.2 mm 4 mps 736 mmHg 60%
    20:00 +17°C° 0.2 mm 5 mps 736 mmHg 65%
    21:00 +17°C° 0.2 mm 5 mps 736 mmHg 67%
    22:00 +16°C° 0.2 mm 5 mps 736 mmHg 69%
    23:00 +16°C° 0.2 mm 5 mps 736 mmHg 71%
    Show more